[[{"header":{"parameterUnit":"m.s-1","parameterCategory":1,"la1":30.2991,"la2":30.254,"lo1":-89.0895,"lo2":-89.0444,"dx":0.0017,"dy":0.0017,"nx":28,"ny":28,"refTime":"2023-01-30T15:00:00:Z","depth":0,"parameterNumber":2,"parameterNumberName":"U-component_of_WINDS"},"data":[0,0,0,0,0,0,0,0,0,0,0,0,0,0,0,0,0,0,0,0,0,0,0,0,0,0,0,0,0,0,0,0,0,0,0,0,0,0,0,0,0,0,0,0,0,0,0,0,0,0,0,0,0,0,0,0,0,0,0.0838,0.0837,0,0.0831,0.0831,0.0831,0.0838,0.0838,0.0838,0.0838,0.0832,0.0832,0.0831,0,0,0,0,0,0,0,0,0,0,0,0,0,0.0855,0.0854,0.0838,0.0837,0.0837,0.0831,0.0831,0.0831,0.0838,0.0838,0.0838,0.0839,0.0832,0.0832,0.0831,0,0,0,0,0,0,0,0,0,0,0,0,0,0.0848,0.0854,0.0838,0.084,0.084,0.0832,0.0831,0.0831,0.0838,0.0838,0.0838,0.0839,0.0832,0.0832,0.0831,0.082,0,0,0.0829,0.0829,0,0,0,0,0,0,0,0,0.0848,0.0847,0.084,0.084,0.084,0.0836,0.0835,0.0828,0.0838,0.0839,0.0838,0.0839,0.0833,0.0832,0.083,0.082,0.0819,0.0829,0.0829,0.0829,0.0828,0,0,0,0,0,0,0,0.0849,0.0847,0.0835,0.0839,0.084,0.0841,0.0841,0.0834,0.0834,0.0838,0.0839,0.0838,0.0833,0.0831,0.083,0.0819,0.0829,0.0829,0.0828,0.0828,0.0799,0.0799,0,0,0,0,0,0,0.0849,0.0848,0.0835,0.0835,0.0845,0.0841,0.084,0.0837,0.0834,0.0834,0.0838,0.0838,0.0832,0.0831,0.083,0.0816,0.0829,0.0828,0.0828,0.0799,0.0799,0.0799,0,0,0,0,0,0,0.0849,0.0848,0.0836,0.0842,0.084,0.084,0.0836,0.0836,0.0834,0.0833,0.0833,0.0836,0.0832,0.0831,0.0822,0.0816,0.0828,0.0827,0.08,0.0799,0.0799,0.0789,0,0,0,0,0,0,0.085,0.0848,0.0844,0.0841,0.084,0.0828,0.0836,0.0836,0.0833,0.0834,0.0831,0.0831,0.0832,0.0823,0.0822,0.0816,0.0827,0.08,0.08,0.0799,0.079,0.0788,0.0787,0,0,0,0,0,0.085,0.0841,0.0843,0.0842,0.0834,0.0828,0.0827,0.0828,0.0833,0.0828,0.0828,0.0831,0.0817,0.0822,0.0821,0.0814,0.0801,0.08,0.0799,0.0791,0.0789,0.0787,0,0,0,0,0,0,0.0842,0.0841,0.0843,0.0833,0.083,0.0829,0.0823,0.0826,0.0822,0.0823,0.0825,0.0824,0.0815,0.0814,0.082,0.0803,0.081,0.0809,0.0804,0.0802,0.0801,0.08,0.0826,0,0,0,0,0,0.084,0.0834,0.0833,0.0824,0.0823,0.0823,0.082,0.0822,0.0819,0.0818,0.0817,0.0814,0.0809,0.0806,0.0801,0.079,0.0789,0.0785,0.0783,0.0782,0.0781,0.0774,0.0772,0.0795,0.0795,0.0795,0,0,0.0833,0.0832,0.0828,0.0823,0.0821,0.0815,0.0822,0.0816,0.0812,0.0817,0.0809,0.0808,0.0805,0.0795,0.0791,0.0794,0.0774,0.0781,0.078,0.0779,0.0773,0.0771,0.0769,0.0795,0.0795,0.0795,0,0,0.0819,0.0818,0.081,0.0808,0.0805,0.0805,0.0804,0.0801,0.0801,0.0793,0.0797,0.0792,0.0783,0.0781,0.0779,0.0764,0.0767,0.0762,0.0754,0.0747,0.0746,0.0744,0.0738,0.0736,0.0761,0.0761,0.0761,0,0.0812,0.0803,0.0806,0.0799,0.0796,0.0801,0.0793,0.0791,0.0787,0.0785,0.0789,0.0778,0.0776,0.0766,0.0762,0.076,0.0758,0.0762,0.0746,0.0744,0.0743,0.0737,0.0735,0.0761,0.0761,0.0761,0.0761,0,0.0794,0.0788,0.0782,0.0778,0.0774,0.0767,0.0768,0.0765,0.0767,0.0767,0.0758,0.0757,0.0752,0.075,0.0751,0.0739,0.0741,0.0745,0.0752,0.074,0.0734,0.0732,0.076,0.076,0.076,0.076,0,0,0.0773,0.0771,0.0769,0.0766,0.0764,0.0759,0.0752,0.0748,0.0744,0.0741,0.0735,0.0728,0.0732,0.0729,0.0731,0.0726,0.0713,0.0731,0.0731,0.0727,0.0699,0.0695,0.0692,0.0716,0.0715,0.0715,0.0699,0,0.0758,0.0746,0.0748,0.0736,0.073,0.0735,0.0729,0.0727,0.0727,0.0722,0.0722,0.0717,0.0723,0.0721,0.0716,0.0716,0.0708,0.0717,0.0709,0.0709,0.0709,0.069,0.0685,0.067,0.0697,0.0697,0.0696,0,0.0739,0.0735,0.0722,0.0721,0.0718,0.0713,0.0708,0.0704,0.0701,0.0702,0.0699,0.0702,0.0695,0.0702,0.0692,0.0699,0.0696,0.0695,0.0695,0.0693,0.0701,0.0687,0.0666,0.0663,0.0693,0.0693,0.0694,0,0.0724,0.0716,0.0707,0.0706,0.0704,0.0699,0.0698,0.0696,0.0693,0.069,0.0687,0.0683,0.0681,0.0677,0.0679,0.0684,0.0668,0.0676,0.0668,0.0668,0.0663,0.0663,0.064,0.0663,0.0663,0.0663,0.0663,0,0.0706,0.0698,0.0701,0.0695,0.0686,0.0689,0.068,0.068,0.0678,0.0672,0.0677,0.0671,0.0674,0.0669,0.067,0.0662,0.0661,0.066,0.0661,0.0659,0.0659,0.0657,0.0657,0.0663,0.0663,0.0663,0.0663,0,0.0688,0.0689,0.068,0.0679,0.0678,0.0672,0.0671,0.0665,0.0666,0.0659,0.0658,0.0658,0.0653,0.0654,0.0648,0.0649,0.0637,0.064,0.0638,0.0638,0.0629,0.063,0.0603,0.0599,0.0626,0.0625,0.0625,0,0.0676,0.067,0.0668,0.0665,0.0663,0.0658,0.0654,0.0657,0.0654,0.0651,0.0646,0.064,0.0636,0.0627,0.0627,0.0622,0.0623,0.0614,0.0623,0.0621,0.0622,0.0622,0.0621,0.0612,0.0612,0.0612,0.0611,0,0.0654,0.0655,0.0651,0.0646,0.0642,0.0639,0.0636,0.0633,0.0635,0.0631,0.0625,0.0622,0.0616,0.061,0.0606,0.0605,0.0608,0.0609,0.0607,0.0605,0.0604,0.0603,0.0632,0.0609,0.061,0.061,0.061,0.061,0.0638,0.0632,0.063,0.0625,0.0623,0.062,0.0615,0.0615,0.061,0.0605,0.0607,0.06,0.0598,0.0593,0.0591,0.0586,0.0589,0.0586,0.0585,0.0584,0.0582,0.0606,0.0585,0.0585,0.0585,0.0585,0.0585,0,0.0616,0.0615,0.061,0.0605,0.0601,0.0605,0.0602,0.0598,0.0592,0.059,0.0586,0.0579,0.0573,0.0573,0.0568,0.0564,0.0565,0.0562,0.0562,0.0561,0.058,0.0582,0.0561,0.0561,0.0561,0.0561,0.0561,0.0561,0.0603,0.0594,0.0595,0.0585,0.0584,0.0577,0.0575,0.0572,0.057,0.0562,0.0558,0.0558,0.0556,0.0551,0.0547,0.0547,0.0544,0.054,0.0541,0.0558,0.056,0.0563,0.0564,0.054,0.054,0.0523,0.0523,0.0522]},{"header":{"parameterUnit":"m.s-1","parameterCategory":1,"la1":30.2991,"la2":30.254,"lo1":-89.0895,"lo2":-89.0444,"dx":0.0017,"dy":0.0017,"nx":28,"ny":28,"refTime":"2023-01-30T15:00:00:Z","depth":0,"parameterNumber":3,"parameterNumberName":"V-component_of_WINDS"},"data":[0,0,0,0,0,0,0,0,0,0,0,0,0,0,0,0,0,0,0,0,0,0,0,0,0,0,0,0,0,0,0,0,0,0,0,0,0,0,0,0,0,0,0,0,0,0,0,0,0,0,0,0,0,0,0,0,0,0,-2.0487,-2.0486,0,-2.0415,-2.0414,-2.0413,-2.0389,-2.039,-2.039,-2.039,-2.0308,-2.0306,-2.0303,0,0,0,0,0,0,0,0,0,0,0,0,0,-2.0596,-2.0594,-2.0487,-2.0486,-2.0485,-2.0415,-2.0414,-2.0413,-2.0389,-2.039,-2.039,-2.039,-2.0309,-2.0306,-2.0303,0,0,0,0,0,0,0,0,0,0,0,0,0,-2.0539,-2.0594,-2.0487,-2.0465,-2.0462,-2.0415,-2.0414,-2.0413,-2.0389,-2.039,-2.039,-2.0391,-2.031,-2.0306,-2.0303,-2.027,0,0,-2.0291,-2.029,0,0,0,0,0,0,0,0,-2.0542,-2.0535,-2.0469,-2.0466,-2.0463,-2.0412,-2.0422,-2.0365,-2.0389,-2.0417,-2.039,-2.0391,-2.0342,-2.0335,-2.032,-2.0266,-2.0262,-2.0291,-2.0289,-2.0287,-2.0286,0,0,0,0,0,0,0,-2.0546,-2.0538,-2.0458,-2.0468,-2.0465,-2.0456,-2.0449,-2.0411,-2.0377,-2.0414,-2.0412,-2.0405,-2.034,-2.0324,-2.0318,-2.0261,-2.0291,-2.0288,-2.0285,-2.0284,-2.0175,-2.0175,0,0,0,0,0,0,-2.0555,-2.0541,-2.0461,-2.0456,-2.0505,-2.0454,-2.0445,-2.0428,-2.0377,-2.037,-2.0404,-2.0404,-2.033,-2.0323,-2.0315,-2.0274,-2.0287,-2.0283,-2.0281,-2.0176,-2.0175,-2.0175,0,0,0,0,0,0,-2.0557,-2.0548,-2.0463,-2.0498,-2.0487,-2.0452,-2.0432,-2.0426,-2.041,-2.037,-2.0363,-2.0395,-2.033,-2.0321,-2.0282,-2.027,-2.0282,-2.0278,-2.0177,-2.0176,-2.0175,-2.019,0,0,0,0,0,0,-2.056,-2.0549,-2.0538,-2.0498,-2.0485,-2.0433,-2.0431,-2.0424,-2.0405,-2.0404,-2.0359,-2.0352,-2.033,-2.0288,-2.0278,-2.0265,-2.0275,-2.0178,-2.0176,-2.0175,-2.019,-2.0189,-2.0189,0,0,0,0,0,-2.0564,-2.0543,-2.0537,-2.0528,-2.0471,-2.0433,-2.0425,-2.0402,-2.0404,-2.0391,-2.0366,-2.0354,-2.0273,-2.0284,-2.0273,-2.0259,-2.0178,-2.0177,-2.0175,-2.019,-2.019,-2.0189,0,0,0,0,0,0,-2.0579,-2.0537,-2.0531,-2.0496,-2.0469,-2.0429,-2.0412,-2.0402,-2.0371,-2.0371,-2.0341,-2.0331,-2.0295,-2.0273,-2.0285,-2.0224,-2.0225,-2.0221,-2.024,-2.0239,-2.0238,-2.0244,-2.0272,0,0,0,0,0,-2.0579,-2.0554,-2.0518,-2.0491,-2.0478,-2.0448,-2.043,-2.0415,-2.0384,-2.0372,-2.0343,-2.0311,-2.0279,-2.0257,-2.0225,-2.0187,-2.0176,-2.0172,-2.0171,-2.0171,-2.0168,-2.0145,-2.0143,-2.017,-2.017,-2.017,0,0,-2.0577,-2.0551,-2.0537,-2.0493,-2.047,-2.0443,-2.0438,-2.0409,-2.0388,-2.0366,-2.0329,-2.0307,-2.0269,-2.023,-2.0212,-2.0211,-2.0158,-2.0169,-2.0169,-2.0166,-2.0143,-2.0141,-2.0139,-2.0169,-2.0169,-2.0169,0,0,-2.056,-2.0539,-2.0514,-2.0492,-2.0458,-2.0438,-2.0432,-2.0394,-2.038,-2.0342,-2.0326,-2.0298,-2.0243,-2.0217,-2.0197,-2.0171,-2.0158,-2.0161,-2.0157,-2.0136,-2.0133,-2.0131,-2.0121,-2.0118,-2.0158,-2.0158,-2.0158,0,-2.0561,-2.0522,-2.0502,-2.0475,-2.0455,-2.0438,-2.0411,-2.039,-2.0346,-2.0332,-2.0332,-2.0263,-2.0236,-2.0191,-2.0185,-2.017,-2.016,-2.0165,-2.0136,-2.0134,-2.0131,-2.0121,-2.0118,-2.0159,-2.0159,-2.0158,-2.0158,0,-2.0525,-2.0498,-2.0482,-2.0444,-2.0422,-2.0395,-2.0369,-2.0349,-2.0336,-2.0316,-2.0277,-2.0245,-2.0206,-2.0194,-2.018,-2.0147,-2.0147,-2.0142,-2.0142,-2.013,-2.012,-2.0116,-2.0159,-2.0159,-2.0159,-2.0159,0,0,-2.0514,-2.0466,-2.046,-2.0443,-2.0405,-2.0382,-2.0354,-2.0319,-2.0303,-2.0273,-2.0247,-2.0201,-2.0197,-2.0174,-2.0156,-2.0137,-2.0118,-2.0134,-2.0133,-2.0132,-2.0078,-2.0082,-2.0079,-2.011,-2.0109,-2.0109,-2.0082,0,-2.0491,-2.0444,-2.0425,-2.0384,-2.0359,-2.0342,-2.0317,-2.029,-2.027,-2.0243,-2.022,-2.0188,-2.0185,-2.0171,-2.0151,-2.0125,-2.0107,-2.0127,-2.0083,-2.0082,-2.0093,-2.0073,-2.0077,-2.0053,-2.0078,-2.0077,-2.0076,0,-2.0458,-2.0432,-2.039,-2.0356,-2.0345,-2.0323,-2.029,-2.0265,-2.0233,-2.0219,-2.0195,-2.0179,-2.0146,-2.0149,-2.0102,-2.0116,-2.0097,-2.0081,-2.008,-2.0074,-2.0078,-2.0066,-2.0045,-2.0041,-2.007,-2.0071,-2.0071,0,-2.0454,-2.0408,-2.0377,-2.0362,-2.0322,-2.0307,-2.0289,-2.0258,-2.0238,-2.0207,-2.0194,-2.0159,-2.014,-2.0112,-2.0086,-2.0091,-2.0041,-2.0042,-2.0028,-2.0028,-2.0017,-2.0018,-1.9992,-2.0006,-2.0006,-2.0006,-2.0007,0,-2.0431,-2.0405,-2.0375,-2.0356,-2.0327,-2.0304,-2.0275,-2.0255,-2.0228,-2.0203,-2.0185,-2.0161,-2.0129,-2.0101,-2.008,-2.0044,-2.0035,-2.0022,-2.0016,-2.0023,-2.0025,-2.0009,-2.001,-2.0005,-2.0006,-2.0006,-2.0006,0,-2.042,-2.0399,-2.0364,-2.033,-2.032,-2.03,-2.0269,-2.0249,-2.0229,-2.0197,-2.0188,-2.0156,-2.0121,-2.0094,-2.0047,-2.0033,-1.9995,-1.999,-2.0007,-2.0004,-1.9991,-1.9992,-1.9953,-1.9947,-1.9967,-1.9967,-1.9967,0,-2.0406,-2.0387,-2.0352,-2.0335,-2.0318,-2.0292,-2.0272,-2.0249,-2.0229,-2.0192,-2.0175,-2.014,-2.0111,-2.0056,-2.0027,-1.9991,-1.9984,-1.9972,-1.9978,-1.9985,-1.9982,-1.9984,-1.9981,-1.9971,-1.9971,-1.9971,-1.9971,0,-2.0384,-2.0375,-2.0349,-2.032,-2.0299,-2.0273,-2.0248,-2.0234,-2.0206,-2.0184,-2.0151,-2.0128,-2.0083,-2.0047,-2.0009,-1.9987,-1.9973,-1.997,-1.9965,-1.9971,-1.9982,-1.9975,-2.0005,-1.9971,-1.9971,-1.9971,-1.9971,-1.9971,-2.0371,-2.0353,-2.0326,-2.0298,-2.0277,-2.0254,-2.0233,-2.0212,-2.0185,-2.0148,-2.0135,-2.01,-2.0068,-2.0015,-1.9993,-1.9964,-1.9962,-1.9954,-1.9952,-1.9951,-1.9951,-1.9988,-1.9956,-1.9956,-1.9956,-1.9956,-1.9956,0,-2.0347,-2.0329,-2.0304,-2.027,-2.0248,-2.0241,-2.0212,-2.0193,-2.0164,-2.0136,-2.0109,-2.007,-2.0036,-2.0004,-1.9968,-1.995,-1.9943,-1.9941,-1.9942,-1.9937,-1.9955,-1.9963,-1.9948,-1.9948,-1.9948,-1.9948,-1.9948,-1.9948,-2.0332,-2.0302,-2.0289,-2.0248,-2.0229,-2.0198,-2.0182,-2.016,-2.0138,-2.0096,-2.0069,-2.005,-2.002,-1.9982,-1.9949,-1.9941,-1.9927,-1.9927,-1.9917,-1.9934,-1.9935,-1.9936,-1.9944,-1.9925,-1.9925,-1.9901,-1.9901,-1.9901]}]]